This is the latest recevied weather packets stored in our database for station/object KB3KBR-WX. If no packets are shown the sender has not sent any weather packets the latest 10 day(s).
| Time | Temp. | Humidity | Pressure | Rain* | Wind** | Luminosity | Snow |
|---|---|---|---|---|---|---|---|
| 1787676359 | 21.67° C | 77% | 1017.2 hPa | 0 mm | - | - | - |
| 1787676028 | 21.11° C | 78% | 1017.1 hPa | 0 mm | - | - | - |
| 1787675729 | 21.11° C | 80% | 1017.2 hPa | 0 mm | - | - | - |
| 1787675438 | 20.56° C | 81% | 1017.2 hPa | 0.25 mm | - | - | - |
| 1787675396 | 20.56° C | 81% | 1017.2 hPa | 0.25 mm | - | - | - |
| 1787675183 | 20.56° C | 81% | 1017.4 hPa | 0.25 mm | - | - | - |
| 1787675097 | 20.56° C | 81% | 1017.4 hPa | 0.25 mm | - | - | - |
| 1787674808 | 20° C | 83% | 1017.6 hPa | 0.25 mm | - | - | - |
| 1787674766 | 20° C | 83% | 1017.6 hPa | 0.25 mm | - | - | - |
| 1787674109 | 20° C | 84% | 1017.5 hPa | 0.25 mm | - | - | - |
| 1787673806 | 19.44° C | 84% | 1017.5 hPa | 0.25 mm | - | - | - |
| 1787673178 | 18.89° C | 88% | 1017.6 hPa | 0.25 mm | - | - | - |
| 1787672879 | 18.89° C | 87% | 1017.5 hPa | 0.25 mm | - | - | - |
| 1787672285 | 18.89° C | 89% | 1017.6 hPa | 0.25 mm | - | - | - |
| 1787672216 | 18.89° C | 89% | 1017.6 hPa | 0.25 mm | - | - | - |
| 1787671918 | 18.89° C | 89% | 1017.6 hPa | 0 mm | - | - | - |
| 1787671588 | 18.33° C | 91% | 1017.6 hPa | 0 mm | - | - | - |
| 1787671262 | 18.33° C | 90% | 1017.5 hPa | 0 mm | - | - | - |
| 1787670928 | 18.33° C | 90% | 1017.4 hPa | 0 mm | - | - | - |
| 1787670296 | 18.89° C | 87% | 1017.3 hPa | 0 mm | - | - | - |
| 1787669996 | 18.89° C | 86% | 1017.4 hPa | 0 mm | - | - | - |
| 1787669668 | 18.89° C | 87% | 1017.3 hPa | 0 mm | - | - | - |
| 1787669339 | 18.89° C | 87% | 1017.3 hPa | 0 mm | - | - | - |
| 1787669038 | 18.89° C | 87% | 1017.3 hPa | 0 mm | - | - | - |
| 1787668708 | 18.89° C | 87% | 1017.2 hPa | 0 mm | - | - | - |
* Rain latest hour (hover to see other rain measurements)
** Current wind speed in m/s (hover to see current wind gust speed)